Regional Weather Roundup
Issued by NWS

Home | Current Version | Previous Version | Graphics & Text | Print | Product List | Glossary On
Versions: 1 2 3 4 5 6 7 8 9 10 11 12 13 14 15 16 17 18 19 20 21 22 23 24 25 26 27 28 29 30 31 32 33 34 35 36 37 38 39 40 41 42 43 44 45 46 47 48 49 50
482
ASUS43 KLMK 230202
RWRKY
KENTUCKY REGIONAL WEATHER ROUNDUP
NATIONAL WEATHER SERVICE LOUISVILLE KY
1000 PM EDT TUE MAY 22 2018

NOTE "FAIR" INDICATES FEW OR NO CLOUDS BELOW 12,000 FEET
WITH NO SIGNIFICANT WEATHER AND/OR OBSTRUCTIONS TO VISIBILITY.

KYZ001>023-026-027-061>063-070>075-230300-
WESTERN AND SOUTH CENTRAL KENTUCKY

CITY           SKY/WX    TMP DP  RH WIND       PRES   REMARKS
PADUCAH        FAIR      76  69  79 S5        30.00R
HENDERSON      NOT AVBL
OWENSBORO      FAIR      78  72  81 SW3       29.99R
HOPKINSVILLE   FAIR      74  73  95 S6        30.01S
BOWLING GREEN  FAIR      73  69  87 SW3       30.02R
GLASGOW        NOT AVBL
$$

KYZ024-025-028>034-038-045-046-053-230300-
NORTH CENTRAL KENTUCKY

CITY           SKY/WX    TMP DP  RH WIND       PRES   REMARKS
LOUISVILLE/SDF FAIR      78  70  76 SW7       29.98R
LOUISVILLE/LOU FAIR      77  72  84 SW8       29.99R
FORT KNOX      FAIR      74  72  94 S7        30.01R
$$

KYZ035>037-039>044-047>052-055>060-089>105-230300-
NORTHEAST KENTUCKY

CITY           SKY/WX    TMP DP  RH WIND       PRES   REMARKS
LEXINGTON      FAIR      73  67  81 S3        30.03R
COVINGTON      FAIR      73  62  68 SE5       30.00R
FRANKFORT      FAIR      74  66  76 S9        29.99R
$$

KYZ054-064>069-076>088-106>120-230300-
SOUTHEAST KENTUCKY

CITY           SKY/WX    TMP DP  RH WIND       PRES   REMARKS
JACKSON        FAIR      70  67  90 CALM      30.05R
LONDON         FAIR      67  66  97 CALM      30.06R FOG
SOMERSET       NOT AVBL
MIDDLESBORO    FAIR      68  68 100 CALM      30.07R
MONTICELLO     FAIR      66  66 100 CALM      30.07R FOG
$$





USA.gov is the U.S. government's official web portal to all federal, state and local government web resources and services.